GFSNGP_700_spd_000.txt.gz
Wind_Speed
11 8 12 15 21 22 25 24 18 19 19 15 20 27 33 34 25 19 18 24 28 26 30 37 37 36 37 39 40 43 45 48 54 55 52 49 48 45 43 41 40 41 41 41
11 10 11 14 16 19 22 23 26 26 28 13 8 12 13 15 19 23 26 26 26 27 36 40 39 37 40 42 45 48 51 54 54 49 46 42 41 40 40 41 41 43 43 44
6 11 12 12 10 18 24 26 19 14 9 14 15 16 18 21 24 24 23 24 28 37 39 38 38 41 42 45 47 50 51 49 45 43 41 40 41 43 44 45 46 47 48 49
5 5 2 6 9 6 5 5 7 10 16 19 20 22 22 21 22 23 27 34 38 36 38 40 41 46 46 49 52 49 44 43 42 40 40 41 43 45 47 48 50 51 51 51
5 8 9 7 6 7 8 7 12 17 18 19 23 27 22 21 23 32 39 37 33 36 39 43 43 44 51 51 46 43 42 39 38 38 39 42 44 47 49 51 52 53 53 53
8 4 5 6 9 8 8 10 18 18 19 15 18 25 29 34 36 32 30 30 33 36 40 44 47 54 51 46 44 43 39 36 37 39 42 45 49 50 52 52 53 54 54 53
14 6 7 11 13 14 8 6 15 16 19 27 31 34 37 36 35 32 32 31 34 37 39 50 48 46 45 43 41 39 37 37 39 42 46 49 52 52 53 54 55 54 54 53
15 8 9 12 12 14 12 14 20 25 30 35 36 39 36 32 35 36 36 38 40 41 47 44 43 41 40 40 40 38 38 40 43 47 50 51 53 54 54 54 54 54 54 54
10 6 11 13 16 17 20 25 29 34 37 40 38 35 37 35 33 32 35 37 40 43 42 44 39 38 39 38 38 38 40 44 47 50 51 52 53 53 53 53 53 54 54 53
19 20 19 18 23 26 30 34 37 39 36 35 32 32 31 31 32 32 34 37 39 40 38 33 33 35 36 36 39 42 45 48 50 52 53 52 51 51 52 52 53 54 53 50
28 25 21 23 28 32 36 35 33 32 30 30 31 32 34 34 34 36 36 35 35 32 29 31 32 32 35 39 43 45 48 50 52 53 52 51 50 50 51 51 52 51 48 45
29 21 23 24 24 26 27 27 27 29 31 32 33 33 33 34 34 34 34 33 31 30 31 32 33 34 38 41 44 47 49 51 51 51 51 50 51 51 49 51 50 45 39 39
16 18 18 20 22 24 25 26 27 29 32 33 33 34 35 35 34 33 31 30 29 30 30 32 34 36 39 42 45 49 52 51 51 50 50 51 52 54 57 52 45 38 34 35
15 16 18 20 22 22 22 24 29 31 32 33 34 36 34 32 30 29 28 27 28 29 30 33 37 38 41 45 50 53 52 51 51 51 52 53 53 53 52 49 45 38 31 35
15 17 19 19 20 21 24 30 32 33 33 33 32 32 30 27 24 23 25 26 28 29 33 37 41 42 46 50 53 52 51 51 52 53 52 51 51 49 46 42 38 37 37 36
14 16 17 18 20 23 29 33 31 30 29 29 29 29 26 23 22 24 26 29 33 35 37 41 44 46 49 50 50 50 51 52 52 52 51 49 47 44 39 37 37 37 38 41
15 14 15 18 23 28 32 32 30 28 29 29 27 23 22 23 25 28 31 34 35 38 40 44 47 48 48 47 50 52 52 51 51 50 48 45 41 37 36 37 39 40 39 39
12 15 20 24 29 31 31 29 28 28 27 24 22 23 25 27 30 31 33 35 36 39 41 45 46 46 47 49 50 51 52 51 49 46 42 38 35 34 36 38 39 40 40 39
20 25 28 31 33 32 29 28 27 25 22 22 23 25 27 29 31 33 36 37 39 44 45 44 45 47 48 49 50 51 50 46 42 39 36 35 35 36 38 39 40 40 40 39
27 31 34 33 31 30 27 26 25 23 23 24 25 27 28 30 33 36 39 41 41 46 46 46 47 48 49 50 50 47 43 41 39 37 36 37 38 39 38 37 38 38 38 36
35 37 36 35 32 29 27 25 24 24 25 25 27 29 33 34 37 39 41 43 42 43 45 46 46 47 49 48 44 42 41 39 38 38 39 39 38 38 39 38 38 36 34 32
35 32 28 28 28 26 24 24 25 26 27 29 31 33 36 38 39 41 41 44 44 45 47 47 47 47 46 42 41 40 39 39 39 40 40 39 40 40 38 37 36 33 30 29
33 31 31 31 29 26 25 25 26 28 29 31 33 36 39 40 41 43 45 42 45 46 47 47 46 43 41 41 40 39 40 41 41 40 40 40 40 39 37 34 31 30 29 28
35 34 31 29 28 26 25 27 29 30 31 33 36 39 41 41 41 40 42 45 46 47 47 46 42 40 40 40 40 40 41 41 41 41 41 40 38 34 31 29 28 27 26 25
35 33 31 30 27 26 27 28 30 32 34 36 38 38 39 40 42 44 46 46 46 47 46 42 40 39 40 40 40 41 41 41 42 42 41 38 33 31 30 28 27 26 24 23
34 34 33 29 27 27 28 29 32 33 35 37 36 36 37 39 42 44 45 45 46 45 42 40 39 39 40 40 41 41 41 41 41 39 37 33 32 30 28 27 25 23 21 20
34 35 31 29 28 26 29 31 32 33 33 35 36 36 39 42 43 43 45 46 44 42 40 39 38 38 40 41 41 40 40 39 36 35 34 32 29 28 26 25 23 23 21 19

GFSNGP_700_spd_003.txt.gz
Wind_Speed
16 13 17 24 31 32 31 30 20 19 19 11 13 17 19 24 30 26 14 16 17 17 16 24 32 36 37 37 39 42 44 47 50 59 49 48 48 46 45 44 44 45 46 46
14 15 14 15 18 27 28 27 28 24 20 17 22 20 15 14 14 16 19 18 17 17 24 31 35 36 40 43 44 46 47 51 60 49 47 46 45 43 44 44 45 47 50 53
7 12 10 10 20 21 24 26 25 24 20 18 16 15 16 18 20 21 20 20 21 26 30 34 38 39 41 43 47 49 54 57 50 47 45 44 43 44 45 47 50 53 55 56
5 8 2 10 13 14 16 20 24 22 18 17 16 16 16 18 19 19 22 26 30 34 37 37 38 41 44 46 49 55 53 50 48 47 45 43 44 45 48 51 55 58 59 59
6 9 5 7 14 14 14 15 17 18 18 18 17 17 17 18 22 26 31 34 35 34 33 35 40 43 44 44 54 48 47 45 45 44 43 43 45 49 53 57 59 61 60 59
8 4 6 6 15 16 15 15 19 18 16 16 18 17 21 28 32 33 31 27 29 30 33 37 39 45 50 48 46 44 41 42 42 42 44 46 50 53 57 60 61 60 59 56
17 8 6 11 14 13 10 10 12 16 15 16 19 26 33 35 35 32 33 32 30 31 35 39 42 46 47 47 43 39 40 41 42 43 47 50 54 57 59 60 60 57 56 54
14 8 9 13 16 17 13 13 13 13 17 24 30 33 34 33 33 31 29 29 31 33 37 40 43 44 43 40 38 39 41 42 43 46 51 54 57 58 57 56 56 55 54 54
9 8 10 8 16 16 18 18 20 24 29 33 36 34 33 31 31 30 30 29 30 34 37 38 38 37 34 36 38 39 41 43 47 50 52 54 56 56 55 54 54 55 57 59
18 18 16 15 16 19 21 24 27 32 35 35 32 31 30 31 31 31 30 31 33 34 35 34 33 34 36 38 39 41 44 47 49 51 54 54 54 54 54 54 55 57 58 58
25 25 17 18 19 22 25 29 33 33 31 30 29 30 32 33 33 33 34 33 33 33 33 33 33 33 37 39 41 43 46 47 50 54 54 55 54 54 54 54 54 55 54 51
24 21 19 25 28 30 30 28 29 29 28 28 30 32 34 34 34 34 33 32 31 31 31 31 32 34 38 40 42 45 48 51 54 55 55 56 56 56 52 53 51 47 46 42
30 30 28 27 25 25 26 26 27 28 27 29 32 34 34 34 32 31 30 29 29 29 30 33 34 36 39 41 44 47 51 53 54 54 56 56 55 55 57 53 50 42 38 38
15 16 17 19 22 23 24 24 24 26 29 33 34 32 31 30 30 29 28 27 27 29 32 34 35 37 40 42 46 50 52 52 53 54 54 53 53 53 53 51 49 43 33 35
18 18 20 21 21 21 22 24 27 30 33 33 31 29 29 30 29 28 27 27 28 30 32 35 37 38 42 46 49 50 51 53 54 53 53 52 50 49 47 44 41 40 39 38
16 18 19 18 19 21 24 26 29 32 32 31 29 29 30 28 26 26 26 28 30 31 33 36 39 42 46 48 49 50 52 51 52 53 52 49 45 43 41 40 39 40 41 44
16 16 17 19 21 23 25 30 33 33 31 29 29 28 26 24 24 26 28 30 32 34 36 41 43 45 46 47 49 50 50 51 51 50 46 43 41 39 38 39 41 43 43 43
16 17 18 19 22 27 33 34 32 31 29 27 26 25 24 25 25 27 30 31 33 36 39 42 43 44 45 47 49 50 51 51 48 44 42 39 38 39 41 42 42 43 44 43
16 16 19 24 30 33 33 31 30 29 27 26 24 24 24 25 27 29 33 35 37 40 41 42 43 43 46 47 49 50 50 46 43 41 39 38 39 41 41 41 42 43 43 43
16 21 28 34 34 32 29 28 28 28 26 24 25 25 26 28 30 32 36 38 39 42 43 43 44 47 48 49 49 48 44 43 42 41 40 40 40 41 41 41 42 43 42 41
26 31 33 32 30 29 28 28 27 26 25 25 26 28 29 30 33 35 38 41 40 41 42 43 45 47 48 48 48 44 42 42 41 41 40 40 41 41 41 42 42 42 40 37
31 30 29 30 30 30 29 27 26 26 27 27 28 29 30 32 35 38 41 42 42 43 45 46 47 47 48 48 45 42 41 40 40 40 41 41 42 42 42 41 39 36 34 33
28 29 29 30 30 29 29 28 27 27 27 28 29 31 33 35 38 41 43 41 42 43 46 46 47 47 47 46 42 41 40 40 40 41 41 42 43 42 41 37 34 33 32 31
28 28 29 30 29 29 29 29 28 26 27 29 31 33 35 37 40 40 42 42 44 47 47 47 48 47 45 43 41 40 40 40 40 41 42 42 41 38 35 33 31 29 29 27
30 30 30 30 30 30 28 25 24 25 27 30 32 34 37 39 40 41 42 44 45 46 47 46 45 43 41 40 39 39 39 39 40 42 42 41 38 35 33 30 28 27 26 24
32 32 32 31 29 29 26 25 24 25 27 31 33 35 35 37 38 41 43 44 45 46 46 45 43 41 40 39 39 38 39 40 40 40 39 37 35 33 31 28 26 24 24 23
32 31 31 30 30 27 26 25 24 26 30 31 32 33 35 37 39 42 43 43 44 44 43 41 40 39 38 37 38 39 39 39 38 38 37 35 33 30 27 25 23 22 23 22

GFSNGP_700_spd_006.txt.gz
Wind_Speed
19 22 26 34 32 35 36 37 25 29 26 23 15 17 18 19 20 21 23 24 18 17 19 21 23 29 33 36 37 40 43 46 50 51 57 53 47 46 47 47 47 49 51 53
12 18 19 26 29 30 35 37 35 33 21 15 16 16 19 24 26 24 18 20 21 21 21 24 28 30 35 38 39 41 46 49 50 56 52 46 45 45 46 47 49 51 54 58
7 11 10 11 23 23 29 33 33 33 30 27 25 24 20 18 18 18 19 19 19 21 23 27 30 33 37 39 42 45 46 49 56 51 46 44 45 46 47 48 51 55 59 62
5 10 2 12 13 19 21 22 29 30 28 24 22 22 20 19 19 18 18 21 25 26 27 29 31 35 37 39 43 46 51 52 47 44 43 44 45 46 48 51 56 60 63 64
7 14 6 8 13 16 21 22 25 29 27 22 20 18 17 17 18 20 26 29 28 27 27 31 32 33 37 40 46 49 45 42 41 42 43 44 46 48 52 57 60 63 63 61
10 4 7 6 15 18 17 16 19 19 19 19 17 15 14 17 23 29 30 27 26 26 27 29 32 36 38 41 45 41 39 38 40 42 44 45 48 52 55 60 61 60 60 57
15 7 6 9 11 14 14 10 17 20 20 18 15 15 19 26 31 30 28 27 27 28 29 30 33 36 39 41 38 36 37 38 40 42 45 48 51 54 57 59 59 59 59 57
14 7 9 14 16 17 11 10 12 12 12 13 16 22 28 31 30 29 28 28 29 29 29 32 34 37 39 38 36 36 37 39 42 44 46 49 52 54 56 58 58 58 57 56
11 7 10 8 18 17 17 13 13 14 15 19 25 29 30 29 29 28 28 29 28 29 31 34 35 36 36 36 36 36 38 40 43 46 47 51 53 55 57 56 56 57 56 57
13 15 12 10 11 12 13 14 16 20 23 27 30 28 28 28 28 29 29 29 30 32 34 36 36 36 36 36 36 38 40 43 45 47 50 52 53 55 55 55 57 57 55 54
20 20 15 14 15 17 18 19 21 25 28 27 27 26 26 27 30 31 31 31 32 33 34 33 32 34 35 36 38 40 43 45 47 50 51 52 53 54 54 54 54 53 50 49
23 21 19 20 22 23 24 25 25 25 25 25 25 26 28 31 33 33 32 33 33 32 32 31 30 32 35 37 40 43 45 48 50 51 51 53 54 54 54 52 50 47 43 42
24 24 25 23 22 25 27 24 24 24 24 24 25 28 31 33 33 33 32 31 31 30 29 29 30 32 36 39 41 44 47 49 50 50 52 53 54 55 55 50 48 44 39 38
13 17 20 20 19 18 19 21 22 21 23 25 27 31 32 31 31 31 30 29 28 27 28 29 31 34 38 40 43 46 48 47 49 51 52 53 53 51 50 51 50 44 38 39
22 16 15 15 16 18 19 18 19 21 23 26 30 31 30 30 29 28 27 25 24 25 28 31 34 36 39 42 44 46 47 49 51 51 51 52 49 47 47 46 45 44 44 43
16 15 16 17 18 17 16 18 19 23 28 32 31 30 29 28 27 25 24 23 24 27 31 33 35 37 40 43 45 47 48 49 50 50 51 48 46 45 44 44 44 44 45 46
12 14 17 17 15 16 18 19 25 30 33 31 30 29 27 26 25 24 24 24 26 28 32 35 37 40 42 44 47 47 49 49 49 49 47 45 44 44 43 44 45 45 45 45
16 17 14 14 16 16 21 28 32 32 30 29 27 26 25 24 24 24 24 25 28 31 35 38 41 42 43 45 47 49 49 48 49 48 46 44 43 43 43 43 43 44 45 46
13 11 14 15 17 23 30 33 32 31 29 27 26 25 24 24 25 26 26 28 31 35 37 40 42 43 44 45 47 48 47 48 48 46 43 43 42 41 42 43 43 44 45 44
12 14 17 19 25 30 33 33 31 30 29 27 26 24 24 26 27 28 30 31 34 39 41 43 43 44 45 47 48 47 47 48 46 44 42 42 42 42 41 42 42 43 41 39
15 19 22 25 31 31 31 31 29 28 28 27 27 27 26 27 29 30 32 35 37 40 43 43 43 45 47 48 48 47 47 46 44 42 42 41 42 42 42 42 41 40 36 35
22 25 29 31 30 28 30 30 29 28 29 29 29 28 27 28 30 33 36 39 40 42 43 43 44 46 47 48 48 47 45 44 42 41 41 41 41 42 42 40 38 34 31 30
27 29 28 27 26 27 29 30 30 29 29 29 28 28 29 31 33 35 37 39 40 41 42 44 46 47 47 48 47 45 43 42 41 40 40 40 40 40 39 35 33 31 29 28
26 25 25 26 28 30 31 32 32 31 30 28 28 28 30 31 34 37 39 40 41 42 44 46 46 47 47 46 44 43 41 40 39 39 39 39 38 37 34 32 31 29 26 24
23 23 25 28 30 30 29 30 30 29 28 27 27 27 28 32 34 36 37 37 40 43 44 44 45 45 45 43 41 39 38 37 37 38 39 38 36 33 32 30 28 26 24 22
22 24 27 29 28 28 29 29 28 26 27 26 26 28 31 33 34 35 37 40 42 43 44 45 44 43 42 40 38 36 36 37 37 37 37 35 33 30 28 26 25 23 21 20
24 26 28 29 29 29 28 26 25 25 25 25 27 30 30 31 33 36 38 39 41 43 43 42 41 40 38 36 36 37 37 37 36 36 34 32 30 27 23 22 21 19 19 18

GFSNGP_700_spd_009.txt.gz
Wind_Speed
21 29 28 33 35 37 38 38 27 33 32 27 25 24 19 19 20 21 21 21 22 25 22 22 24 26 28 31 33 35 36 38 42 46 47 50 48 45 43 43 44 46 49 51
15 19 22 30 37 36 36 37 38 39 37 30 27 25 21 22 21 22 22 24 22 22 22 22 25 27 29 31 32 35 37 41 45 45 47 45 43 42 43 43 45 47 50 54
10 13 16 16 32 32 35 38 37 40 35 31 26 21 18 20 24 26 25 22 22 21 22 25 26 27 29 31 33 36 40 43 44 44 43 41 41 41 43 45 47 49 53 56
8 12 2 12 14 23 27 26 30 35 35 27 29 30 28 25 22 22 21 20 21 25 26 25 25 27 30 32 35 37 40 42 42 40 39 39 40 42 45 47 49 52 55 58
8 16 6 8 15 18 23 26 27 24 27 27 26 25 24 22 21 20 20 21 25 24 22 23 25 27 29 32 35 37 39 40 39 39 38 39 42 45 47 49 51 53 57 59
12 5 6 6 15 15 12 18 19 22 24 22 22 22 21 19 19 19 22 25 22 21 21 22 24 27 30 34 34 36 37 36 37 37 39 43 46 48 49 51 52 53 56 57
20 7 5 9 7 10 10 8 10 18 18 18 19 18 17 17 19 23 23 20 20 20 21 23 25 28 32 34 35 35 35 35 36 39 43 45 48 49 50 51 53 54 55 57
16 8 10 17 14 14 11 10 9 15 17 17 16 15 16 20 22 21 20 20 21 22 24 26 28 31 33 33 33 33 34 35 38 41 45 47 49 50 50 51 53 55 56 56
14 9 10 9 17 20 15 8 7 9 10 12 14 18 21 21 19 19 20 22 24 26 27 28 30 31 31 31 31 32 34 37 40 43 45 48 49 50 51 52 53 54 54 54
11 13 9 8 12 14 12 12 12 12 13 16 19 20 18 18 19 21 24 25 26 27 28 28 29 30 30 31 32 34 36 40 43 44 46 47 48 49 51 51 53 52 51 53
16 15 13 13 14 14 14 14 15 16 18 20 18 17 17 18 21 23 25 26 27 26 26 27 28 29 30 31 33 36 39 42 43 45 46 47 48 50 51 51 49 49 49 48
18 18 16 14 15 17 17 16 18 19 17 16 16 17 19 22 24 25 26 25 25 25 26 26 26 28 30 33 36 39 40 42 44 46 47 49 50 50 49 47 46 44 43 43
16 16 20 19 17 16 16 16 20 16 15 16 16 19 21 23 26 26 25 25 25 25 24 24 25 28 31 34 37 39 41 43 45 46 48 50 50 49 49 47 46 44 43 42
19 12 16 18 18 20 20 17 14 14 14 16 19 21 25 27 26 26 25 25 24 23 23 24 26 29 32 35 38 40 41 43 45 46 48 48 49 50 49 49 49 47 44 42
19 17 12 11 11 11 10 11 12 13 15 18 21 25 27 27 27 26 24 23 22 23 24 26 27 30 33 37 39 40 42 44 45 47 48 49 49 48 47 46 46 46 45 43
16 17 18 15 13 10 10 11 12 14 17 22 27 27 27 26 25 24 22 21 21 24 26 26 29 32 36 39 41 41 42 43 46 48 48 49 48 46 45 44 44 45 45 45
12 14 13 10 9 10 10 11 13 16 22 25 26 25 25 24 23 23 21 21 23 25 28 30 32 35 38 41 42 42 44 46 47 47 47 47 46 45 43 44 44 44 44 44
14 11 7 9 9 10 11 13 18 23 25 27 27 27 25 24 23 22 22 23 25 27 30 31 34 37 40 42 43 45 46 47 48 48 48 46 45 43 42 42 42 43 44 43
12 9 9 8 9 11 14 19 23 28 29 29 28 26 24 24 23 23 23 25 27 28 30 33 36 40 43 44 45 46 46 47 47 46 46 45 43 40 40 40 41 42 43 41
14 12 9 9 12 17 21 23 28 30 28 27 26 25 25 25 24 24 24 25 29 30 33 36 39 42 43 44 46 46 46 46 46 46 44 43 41 39 39 39 40 40 39 36
13 10 11 14 18 22 25 30 29 27 27 26 26 26 26 26 25 25 26 27 31 33 36 39 42 43 44 46 46 46 46 46 45 44 42 40 39 38 38 39 38 38 35 31
11 12 15 19 23 28 29 27 26 26 27 28 28 28 28 27 26 27 29 31 33 36 38 41 42 43 45 45 45 46 45 44 42 41 40 38 37 37 37 37 36 33 30 27
12 17 22 25 26 25 25 24 25 26 27 28 29 29 28 28 28 29 30 33 35 38 40 41 42 43 44 44 45 44 43 42 40 38 37 36 36 36 35 34 32 31 28 25
18 22 23 23 23 23 24 25 26 27 28 29 29 28 27 28 29 30 31 34 37 38 39 41 42 43 44 44 43 42 41 38 37 36 35 35 34 34 32 31 29 27 24 22
18 20 21 22 22 23 25 25 26 28 28 27 26 26 27 28 28 30 32 34 35 37 38 39 41 42 42 42 41 39 37 36 35 35 35 34 33 31 29 28 26 24 22 20
19 20 21 21 22 24 25 26 27 28 27 26 27 27 27 27 28 30 31 34 36 37 39 41 41 41 40 39 38 36 35 35 35 34 33 32 30 28 26 24 22 21 20 19
20 20 21 22 23 25 26 27 28 27 27 27 26 26 25 25 27 30 32 33 36 38 39 38 38 38 37 37 36 35 35 35 34 34 31 28 26 25 23 22 20 19 19 17

GFSNGP_700_spd_012.txt.gz
Wind_Speed
15 17 18 25 32 34 33 32 22 24 26 23 21 21 20 15 17 21 23 24 24 22 22 25 26 26 29 31 31 33 36 37 40 42 43 43 41 38 39 40 42 44 46 47
14 16 18 22 26 31 36 32 34 25 28 24 25 23 20 18 21 25 25 24 24 24 26 25 26 28 29 32 33 35 37 39 41 42 43 42 39 40 40 42 44 46 46 48
5 7 14 14 28 29 30 32 35 33 31 26 27 25 24 22 22 24 24 25 26 26 24 25 26 29 31 32 33 36 39 40 41 42 41 39 40 41 43 44 46 46 47 49
2 5 5 9 15 24 29 30 35 37 35 33 28 25 24 23 23 22 25 25 24 24 25 27 30 30 30 31 34 37 39 39 40 40 39 39 40 41 43 46 47 48 49 50
5 13 9 10 16 19 26 29 29 26 32 33 26 23 25 26 26 24 23 23 23 24 26 28 27 27 29 31 34 37 36 38 39 38 38 39 41 43 46 48 48 49 50 52
11 4 5 6 12 10 14 19 17 23 29 25 23 24 27 25 24 22 21 21 22 25 25 23 24 26 28 30 34 34 36 37 37 37 38 40 43 46 47 48 49 50 51 52
16 8 9 15 8 7 9 7 9 15 19 20 21 23 19 20 20 19 20 22 24 22 22 23 24 25 27 30 32 33 35 35 35 37 39 42 45 45 48 49 49 50 52 52
18 10 13 15 13 12 11 10 8 9 13 16 17 18 17 17 18 20 23 22 20 21 22 22 24 25 27 30 31 33 33 33 34 37 40 43 45 47 48 49 51 51 51 52
17 13 15 11 15 17 18 14 8 8 11 14 15 15 15 17 19 20 18 18 20 21 22 23 24 26 28 29 30 30 31 32 35 38 41 44 46 47 48 49 50 51 51 52
21 22 15 14 13 15 13 13 10 11 11 12 13 14 17 17 16 16 17 19 20 22 23 24 25 27 28 29 29 29 30 34 37 40 42 43 45 47 48 50 50 50 50 51
22 17 14 14 14 13 13 11 11 11 12 14 15 16 14 14 15 16 18 20 22 23 24 25 26 27 27 26 27 29 32 36 39 42 43 44 45 47 48 48 49 49 48 48
13 12 11 11 12 14 15 15 15 15 15 16 15 14 14 14 16 18 20 22 23 24 25 26 26 25 25 26 28 31 34 38 40 42 43 45 47 48 49 48 47 46 44 45
14 13 11 14 17 18 19 19 18 17 16 14 12 12 13 15 18 20 22 23 24 25 25 24 24 24 25 27 30 33 37 40 43 43 45 47 48 49 49 48 48 48 46 46
17 16 14 14 16 19 21 19 18 16 12 11 10 12 14 18 21 22 23 24 24 23 23 22 23 24 27 29 32 35 39 41 42 44 46 48 49 49 49 50 50 49 46 45
18 17 14 12 16 18 18 16 12 11 9 9 10 14 18 20 22 23 23 22 22 21 20 22 24 27 30 32 34 37 40 42 43 45 47 48 49 49 49 49 48 48 47 45
13 17 17 16 13 13 12 10 9 7 7 10 14 18 20 21 21 21 21 20 19 20 22 24 26 28 31 34 36 38 41 43 45 47 48 49 49 49 48 47 46 45 44 45
10 12 17 18 14 12 11 9 7 7 10 14 18 21 22 21 20 19 19 19 21 23 24 26 28 30 33 35 38 40 43 44 46 47 48 49 49 48 46 45 44 43 43 43
9 10 15 14 11 10 8 6 7 10 14 19 21 21 20 20 20 20 20 22 23 25 26 28 30 32 34 37 39 42 44 46 48 49 49 49 47 45 43 42 42 42 42 42
12 14 12 10 10 7 6 8 11 15 18 21 20 19 20 20 21 22 23 24 25 26 28 30 32 34 37 39 41 43 46 47 48 48 48 46 45 43 41 40 40 41 41 41
19 14 10 10 7 6 8 13 16 19 21 19 20 21 21 22 23 23 24 25 26 27 29 31 33 35 38 40 43 45 46 47 48 48 46 44 42 40 39 38 39 39 39 37
19 10 10 8 7 10 14 17 20 20 19 20 21 22 23 24 23 23 23 24 26 28 29 31 34 38 40 42 44 45 46 47 46 45 43 41 39 38 38 38 38 37 36 34
13 11 10 10 12 16 19 20 20 19 20 21 22 23 24 24 23 23 24 25 27 29 30 33 36 39 41 43 44 45 46 44 44 42 40 38 37 37 37 37 36 34 32 30
12 9 10 13 17 19 20 20 19 20 21 22 23 24 25 25 24 24 26 27 28 30 33 35 37 40 41 43 44 44 43 42 40 39 37 36 36 36 36 35 32 30 29 27
10 10 12 15 18 19 20 20 20 20 21 23 24 25 25 25 25 27 28 29 30 31 33 36 38 40 42 43 42 42 40 38 37 36 36 35 34 34 33 30 28 28 26 25
8 11 15 17 18 19 19 20 20 22 23 24 25 25 26 27 28 28 28 28 29 32 34 36 38 40 41 41 40 39 37 37 36 36 35 36 34 31 28 27 26 26 23 22
11 15 17 18 19 20 21 21 22 23 25 25 26 26 26 27 27 26 26 29 31 33 35 38 39 40 39 39 38 37 36 36 36 35 36 33 30 28 27 26 25 24 21 20
16 17 18 19 20 20 20 21 23 23 23 24 25 25 26 25 24 26 28 30 32 35 37 38 38 38 38 37 36 36 36 35 36 35 31 31 30 29 27 25 23 21 18 16

GFSNGP_700_spd_015.txt.gz
Wind_Speed
6 5 13 18 24 28 27 26 19 18 20 15 9 14 14 11 13 11 14 21 24 24 25 24 24 26 29 30 30 33 35 37 39 42 45 47 47 47 45 43 42 43 45 47
5 9 10 16 22 25 30 30 29 24 23 12 15 16 17 14 14 13 16 22 26 26 24 25 26 28 29 29 32 34 37 40 41 43 46 47 47 45 42 42 43 45 48 50
5 7 7 14 26 26 27 30 28 34 28 23 21 21 17 15 17 19 20 23 26 24 25 28 29 28 29 31 34 37 38 40 42 44 45 46 45 42 42 44 46 49 49 50
2 6 6 8 10 24 28 26 26 29 21 21 23 24 22 20 20 21 20 22 24 25 27 27 27 28 31 34 35 36 38 41 43 43 43 44 42 42 43 46 48 49 49 49
4 8 11 12 13 16 23 24 25 25 23 25 29 29 25 23 22 21 23 23 23 24 24 25 28 30 31 32 33 36 39 42 40 42 42 41 41 42 45 48 49 49 48 49
6 5 4 3 6 8 10 17 14 17 25 30 23 23 26 23 21 22 22 22 22 23 24 26 28 28 29 31 33 36 39 39 39 40 39 40 41 45 47 49 48 48 49 50
17 8 9 15 10 3 8 3 5 9 15 19 21 23 20 14 20 21 20 20 21 23 25 26 26 27 29 31 34 36 36 36 37 37 38 40 43 46 47 47 47 49 51 51
12 6 10 9 9 9 7 6 5 6 8 14 18 18 19 16 16 17 18 20 23 25 24 24 26 28 30 31 33 33 33 34 33 35 38 42 44 45 44 46 48 50 51 52
13 13 10 9 10 12 17 13 10 8 7 10 12 14 15 14 15 18 19 22 23 22 23 25 26 28 29 29 30 30 30 31 33 36 39 41 44 44 45 47 49 51 52 53
15 19 18 16 16 12 12 11 10 8 7 9 11 12 13 14 17 19 20 19 20 21 23 25 25 26 27 27 28 28 30 32 35 37 39 41 43 44 47 49 50 51 51 52
26 25 20 19 20 15 13 12 10 10 11 11 12 13 14 16 16 15 16 17 20 22 23 24 24 25 26 26 26 28 31 32 34 37 40 42 43 45 48 49 51 51 50 51
20 21 20 18 13 13 15 16 14 13 13 13 14 15 15 14 14 15 16 18 20 22 23 23 25 25 25 26 28 29 30 33 36 39 41 43 45 46 47 49 50 51 50 50
15 13 13 13 14 17 19 18 17 16 15 15 14 13 12 12 13 15 17 20 21 22 23 23 23 24 25 27 27 29 32 35 38 40 42 44 47 49 51 50 51 50 49 47
17 17 15 14 15 16 18 20 18 17 15 14 12 11 11 12 15 18 20 21 21 21 21 22 23 24 25 26 28 31 34 37 39 42 44 46 49 50 51 52 52 51 48 45
19 18 18 18 15 18 19 19 18 16 16 12 10 10 12 15 18 19 20 20 20 20 22 23 24 24 25 27 30 33 36 38 40 43 45 47 49 50 50 50 50 49 48 44
16 19 20 19 17 17 18 18 17 14 12 10 9 11 14 17 19 19 18 19 20 21 21 22 23 25 27 30 33 35 38 40 42 44 47 48 49 50 49 49 48 46 44 43
15 13 13 16 18 17 17 17 14 11 10 9 10 14 17 18 18 18 19 20 20 21 21 23 25 27 30 32 35 37 39 41 43 45 47 48 49 48 48 47 45 43 41 41
20 14 12 11 16 18 17 14 12 10 9 10 13 17 17 17 18 18 19 20 20 21 23 24 27 29 32 34 36 38 40 42 44 46 47 48 47 46 45 43 42 42 42 41
21 14 16 20 20 17 15 12 9 8 10 13 17 17 17 18 19 19 20 20 21 23 24 27 29 31 33 35 37 39 41 43 45 46 47 46 45 44 42 41 41 40 41 41
19 17 19 17 16 15 11 7 7 10 13 16 17 17 18 18 19 20 21 22 23 24 26 28 30 32 33 35 38 40 42 43 45 46 46 44 42 41 39 39 39 39 39 37
20 23 18 18 15 10 6 7 11 14 16 16 16 17 18 19 21 22 22 23 23 25 27 29 31 32 34 36 38 40 42 44 45 45 44 42 40 39 38 38 38 38 35 33
25 18 17 14 9 6 8 12 16 17 17 16 17 18 19 21 22 23 23 25 25 26 28 29 31 33 35 38 39 41 43 44 44 43 41 39 38 38 37 37 36 33 31 30
18 15 12 8 6 8 12 15 17 17 17 17 18 19 21 22 23 24 24 26 27 28 28 30 31 34 36 38 41 42 43 42 41 40 38 37 37 36 37 35 31 30 29 27
16 11 7 5 8 11 14 16 17 17 17 18 19 20 22 23 24 25 26 27 27 27 28 30 33 35 37 40 42 42 42 40 39 38 37 36 36 36 34 31 29 29 27 25
11 7 6 8 10 13 16 17 17 17 18 18 20 22 23 24 25 25 26 26 26 27 29 31 34 37 39 41 41 40 39 38 37 36 36 37 35 32 31 30 29 26 24 23
8 7 9 11 14 16 17 17 17 18 19 21 22 23 24 24 25 26 25 25 27 29 30 33 36 39 41 40 39 38 37 36 35 35 36 35 33 33 31 29 26 23 22 19
8 9 12 15 17 18 17 18 18 19 20 22 24 24 25 25 24 24 25 26 28 30 33 37 40 40 39 37 36 36 35 34 35 35 34 34 32 29 26 25 24 20 17 15

GFSNGP_700_spd_018.txt.gz
Wind_Speed
5 14 25 24 30 24 23 21 7 8 7 9 7 9 7 4 5 7 5 11 20 23 23 24 24 24 25 26 27 31 32 34 37 39 41 42 44 46 47 47 45 43 44 46
11 10 10 18 24 24 23 20 20 14 10 9 11 9 14 8 8 10 11 12 13 19 24 25 25 25 26 26 29 31 33 36 38 40 42 43 44 46 46 44 42 43 45 47
5 6 10 6 17 19 20 22 26 28 22 15 12 14 17 15 11 11 13 13 15 19 25 26 25 25 26 28 30 32 35 37 38 40 41 43 44 45 43 41 42 45 46 48
2 5 1 2 3 17 25 23 22 24 23 18 23 22 24 18 17 13 16 17 18 20 23 24 24 26 28 28 31 34 36 36 37 40 40 42 43 41 41 42 44 46 47 47
1 4 7 6 8 10 16 23 23 23 18 25 23 21 21 20 19 17 17 18 18 20 20 22 24 26 27 30 32 32 33 35 38 39 40 40 39 39 40 43 45 46 46 48
4 1 2 1 5 3 7 14 15 17 20 23 28 27 25 22 20 18 17 18 18 19 20 22 24 26 29 29 30 30 32 35 37 38 38 38 37 38 40 43 45 46 46 48
12 2 5 11 8 2 6 1 0 8 13 25 27 25 21 17 13 15 16 17 17 18 20 21 24 27 26 27 28 30 32 34 35 36 36 35 35 38 42 44 45 45 47 49
11 5 9 9 9 6 4 1 1 3 3 11 17 19 16 16 11 12 15 16 17 18 20 23 24 23 25 26 28 30 31 33 34 32 32 35 38 41 42 43 44 46 49 50
12 9 4 5 1 3 9 10 10 7 4 6 9 11 12 13 11 12 13 15 17 19 20 20 21 23 25 26 28 29 30 30 29 29 32 36 39 41 42 43 47 49 50 51
15 17 14 11 10 9 10 8 7 7 5 5 7 9 10 11 11 12 14 17 17 17 18 20 22 23 24 25 27 28 27 27 28 32 35 36 37 39 42 45 49 50 52 54
22 16 11 12 13 14 15 12 9 6 6 7 8 9 10 10 12 14 15 15 16 17 18 20 22 23 24 25 25 24 25 27 31 34 35 37 38 40 44 46 49 51 52 52
23 16 18 20 16 13 12 11 9 7 7 9 10 10 11 13 14 14 13 15 17 18 19 21 22 22 22 22 22 24 27 30 33 34 36 38 40 42 43 46 47 48 48 47
18 17 13 11 12 12 12 13 12 11 12 11 11 12 13 13 12 12 13 16 17 19 21 21 20 20 21 21 23 26 29 31 33 35 38 40 42 45 47 46 48 48 46 44
14 13 13 12 12 11 13 14 15 15 14 13 13 13 12 11 11 13 15 17 18 19 18 19 19 20 21 22 25 28 30 33 35 37 39 41 44 46 48 50 50 48 44 42
14 15 14 14 14 14 15 16 16 16 15 14 14 12 11 11 13 15 17 17 18 18 18 19 20 20 22 25 27 30 32 34 36 37 40 42 45 46 48 48 47 45 43 40
16 18 17 16 15 13 14 16 17 16 15 14 11 11 11 12 14 16 17 17 17 17 18 19 20 23 25 27 29 31 33 35 37 40 42 44 45 46 46 46 44 42 41 41
17 17 17 17 16 16 17 18 17 15 12 11 10 10 11 14 16 17 17 17 17 17 19 21 22 24 26 28 30 33 34 36 38 40 42 44 45 45 44 43 41 40 39 39
17 18 17 14 10 13 15 16 14 12 11 10 10 11 14 16 15 15 16 17 18 19 20 21 23 25 28 30 32 33 35 37 39 41 43 44 44 44 41 40 39 39 38 38
20 17 14 12 13 16 16 15 14 12 9 8 10 13 15 15 14 15 16 17 19 19 20 23 24 26 28 31 32 33 36 38 40 42 44 44 42 40 38 38 38 37 39 37
20 19 16 15 17 18 16 14 11 7 7 10 13 14 14 14 14 16 18 19 20 21 22 23 25 28 29 30 33 34 37 39 41 43 43 42 40 38 37 37 37 38 37 33
19 18 15 17 18 17 14 10 7 7 10 12 13 13 13 15 16 18 19 19 22 23 24 26 27 28 30 31 34 36 38 40 42 43 41 39 37 36 36 36 36 35 31 30
19 16 20 18 17 15 10 5 6 9 11 12 13 14 15 16 18 20 21 21 22 24 25 27 28 29 31 33 35 37 40 42 42 40 38 36 36 36 36 36 34 30 29 29
17 19 18 17 14 8 4 5 8 11 12 13 14 15 16 18 20 21 22 23 24 25 26 27 28 30 32 34 37 40 42 41 39 37 36 36 35 36 36 32 31 30 28 26
21 18 17 13 8 5 5 7 10 13 14 14 15 16 18 20 21 22 22 23 24 25 25 27 29 31 33 37 40 42 41 38 36 35 35 34 35 34 32 32 30 27 25 22
19 17 13 8 6 5 7 11 13 14 15 15 16 18 20 21 21 22 23 24 24 24 26 28 30 33 37 40 42 40 36 35 35 35 35 35 34 33 32 29 26 24 23 19
16 12 9 6 5 7 11 13 14 14 14 15 17 19 20 22 22 23 23 23 23 25 27 29 33 37 40 41 38 36 35 35 35 34 34 33 32 30 28 26 24 22 19 14
12 8 5 5 9 12 14 14 14 14 15 17 19 20 22 22 22 22 22 23 24 26 29 33 37 40 39 36 35 35 34 33 34 34 33 32 30 28 26 24 22 17 12 9

GFSNGP_700_spd_021.txt.gz
Wind_Speed
17 11 21 15 24 25 25 2 12 22 22 18 19 15 11 9 11 9 8 9 14 20 21 22 23 24 23 22 22 23 26 30 32 33 36 38 39 40 41 42 43 41 41 43
13 11 24 14 13 23 22 18 12 9 8 14 11 10 4 1 4 4 7 8 9 15 20 21 21 21 22 21 22 25 29 31 32 34 37 38 38 39 41 41 40 40 42 44
7 9 16 8 22 22 13 17 13 12 14 15 7 8 7 6 3 4 8 8 9 9 12 16 20 21 21 22 25 27 29 30 32 35 36 36 37 40 40 38 39 40 42 44
6 7 1 2 2 11 18 17 18 20 21 13 9 12 12 12 12 10 7 9 12 14 16 18 20 21 21 22 24 26 29 31 33 34 35 36 37 38 38 37 39 41 42 44
2 5 5 1 3 5 17 18 18 14 13 20 15 11 13 14 14 12 12 11 13 15 15 15 16 17 19 22 25 28 30 31 31 32 34 35 35 35 36 38 39 41 42 44
4 2 2 3 7 1 6 9 9 17 17 17 21 23 20 16 16 15 14 13 12 13 14 15 15 17 20 24 26 27 28 29 30 32 32 32 33 34 37 39 40 41 42 44
13 3 6 8 4 4 4 2 1 9 13 18 22 20 21 19 16 15 16 15 14 14 13 14 16 19 21 24 25 25 27 28 29 30 30 31 32 35 37 39 40 41 43 46
14 4 8 2 5 3 3 4 4 4 5 9 17 19 18 18 18 15 13 13 12 13 14 16 18 20 21 22 23 24 25 26 27 28 29 31 33 35 37 40 42 44 46 47
14 10 3 2 2 2 2 4 4 4 2 6 12 15 15 13 13 11 10 11 11 13 15 17 18 18 20 21 22 24 24 25 25 26 29 32 34 37 38 41 43 46 49 50
15 14 13 10 5 5 3 2 3 3 1 4 6 8 9 9 9 8 8 9 11 14 15 15 16 18 20 21 22 22 23 23 24 27 29 32 34 37 40 42 45 48 50 52
18 13 13 14 11 6 6 7 6 5 3 4 5 6 7 6 6 6 9 11 11 12 14 15 17 19 20 21 21 21 22 23 25 28 31 33 35 38 40 43 46 49 50 53
14 17 16 11 11 11 10 8 7 6 5 6 7 6 5 6 8 10 11 11 11 13 15 17 19 20 20 20 20 20 22 24 27 30 32 34 37 37 39 42 44 46 48 48
8 6 9 11 12 11 10 9 10 9 8 7 7 7 7 9 10 10 9 10 12 14 16 17 18 18 18 18 19 21 23 26 29 31 34 36 38 41 43 42 45 46 46 44
14 15 13 10 7 8 10 10 11 10 10 9 9 9 9 9 9 9 10 12 14 16 17 17 16 16 17 18 20 23 26 28 31 33 35 37 40 42 44 46 48 48 43 40
10 10 10 9 9 9 9 10 12 12 10 10 10 10 10 10 9 9 11 14 15 15 15 15 15 17 18 20 22 25 27 30 32 35 37 39 41 43 45 47 47 44 40 37
12 12 12 11 12 10 10 11 13 13 12 11 10 10 9 8 8 11 13 13 13 14 15 15 16 18 20 21 24 27 29 32 34 36 38 40 42 44 46 46 44 41 38 38
12 14 15 13 14 11 11 13 14 13 11 11 11 9 7 8 11 12 12 12 13 14 14 16 17 18 20 23 26 29 31 33 35 36 39 41 43 45 46 45 41 38 37 36
14 14 14 13 13 11 13 16 15 13 12 11 9 7 8 10 12 12 12 12 13 14 16 17 18 20 23 26 28 30 32 34 35 37 40 42 44 45 44 41 38 37 36 35
17 17 14 9 10 11 13 15 15 13 11 8 6 7 10 11 12 12 12 13 14 16 17 18 21 23 25 28 29 31 32 34 36 39 41 44 44 42 39 37 36 35 36 34
19 17 13 13 12 14 15 15 13 11 8 6 7 9 11 11 11 12 13 14 16 17 19 21 23 25 26 27 29 31 34 36 38 41 44 44 41 38 36 35 35 35 33 30
18 15 15 14 14 17 17 14 11 8 5 7 9 10 11 11 11 12 14 16 18 20 21 22 23 25 26 28 30 32 35 38 41 43 43 40 37 35 35 35 35 33 31 30
16 13 13 12 14 16 16 13 8 5 6 7 9 10 11 11 12 14 16 18 21 22 23 24 24 25 27 29 31 34 38 41 43 41 38 36 35 35 35 34 32 31 29 26
16 14 13 17 17 16 13 9 6 5 6 8 10 10 11 12 14 17 18 20 22 23 24 24 25 27 29 31 34 38 41 42 39 37 36 35 34 34 34 32 31 27 24 23
17 17 18 19 18 14 10 7 5 6 8 9 10 11 13 14 16 18 20 22 24 24 24 25 26 28 31 34 38 40 40 38 37 35 34 34 33 33 32 30 26 23 22 21
18 20 21 18 15 11 7 4 5 8 10 11 12 13 14 17 18 21 23 24 23 23 24 25 27 30 34 37 40 39 37 36 35 34 33 33 32 31 29 26 24 22 21 17
22 21 19 15 11 7 5 5 8 10 12 13 13 14 16 19 21 23 23 23 23 23 24 26 29 33 37 39 37 35 35 35 34 32 32 31 30 29 27 24 22 20 16 11
22 19 15 11 8 5 5 9 12 13 13 13 15 17 19 21 23 23 22 22 22 23 25 29 33 36 38 35 33 34 33 32 32 31 30 28 28 27 25 22 18 13 8 6

GFSNGP_700_spd_024.txt.gz
Wind_Speed
28 32 27 29 36 41 42 36 26 11 26 25 23 21 18 19 19 19 19 19 19 22 24 25 26 26 25 25 25 24 24 25 27 29 31 32 34 37 39 39 41 41 40 40
38 14 18 22 32 36 35 44 36 10 11 20 24 21 17 16 16 15 12 11 13 19 23 24 23 22 23 24 25 24 24 26 27 29 30 33 36 37 37 39 39 39 40 42
11 11 16 10 18 26 25 23 27 11 19 20 19 15 10 13 12 8 7 8 9 11 16 19 20 20 22 23 24 24 25 26 27 29 32 34 36 36 37 38 38 38 40 43
7 4 2 6 3 5 7 11 11 12 16 15 12 12 13 13 7 5 3 4 9 12 13 16 19 20 21 22 23 23 24 25 28 31 32 33 34 36 37 36 37 39 41 44
6 6 7 7 7 5 12 14 13 16 17 14 9 12 13 9 6 7 7 8 9 12 13 14 15 17 18 19 20 22 24 26 28 29 31 32 34 35 35 35 37 40 42 45
6 4 2 4 10 2 4 7 10 15 16 14 17 18 15 13 11 10 10 8 9 10 12 13 13 15 16 18 20 22 24 26 27 29 31 32 32 33 34 37 39 42 43 45
12 4 5 4 3 5 4 3 4 10 17 17 16 15 15 13 11 10 11 10 10 11 11 12 13 13 14 17 20 23 24 26 27 28 29 30 30 32 35 38 40 42 43 44
9 4 7 0 2 2 6 8 6 5 11 15 14 15 13 12 12 11 10 11 12 12 11 11 12 14 17 19 21 22 24 25 26 27 28 28 30 33 37 40 41 43 44 45
8 5 5 3 4 6 3 1 4 6 9 12 11 14 13 12 12 12 11 11 11 10 11 12 14 16 18 19 20 21 23 24 25 25 27 29 32 35 37 40 42 44 46 48
13 13 8 9 6 3 3 5 5 4 4 7 11 13 13 13 13 13 11 10 10 10 12 14 16 16 16 18 19 21 22 22 23 25 27 31 34 38 39 41 42 45 47 49
21 11 12 13 8 2 1 0 1 2 6 7 9 11 11 11 11 10 9 9 10 12 13 13 13 14 16 18 19 19 20 21 23 26 29 32 35 38 39 40 44 47 49 52
9 10 11 7 5 4 5 4 3 4 5 8 11 9 11 10 8 7 8 9 9 9 9 10 12 15 16 17 18 19 21 23 26 29 32 35 36 35 37 40 42 45 47 50
8 6 8 14 12 9 8 7 6 6 7 6 8 9 7 5 5 6 7 6 6 7 10 13 15 15 16 18 19 20 23 25 28 30 33 35 36 39 41 40 42 45 48 48
11 9 8 7 9 9 10 9 9 9 8 9 7 6 5 5 5 5 5 5 7 10 12 13 14 16 17 18 19 21 24 26 29 32 34 36 37 39 42 44 47 48 47 44
13 12 11 8 9 8 9 9 9 9 9 8 7 6 6 6 5 4 5 7 10 11 12 14 15 16 17 19 21 23 26 28 30 33 35 37 39 41 43 46 48 48 44 39
8 8 9 10 8 9 8 8 10 11 11 9 7 6 6 5 3 5 8 10 11 12 13 14 15 16 18 20 22 25 27 30 32 33 35 36 39 42 45 47 47 43 39 38
9 11 12 11 10 10 8 10 12 12 9 7 6 7 4 3 5 8 10 11 12 12 13 14 15 17 19 21 24 26 28 31 32 33 36 39 42 44 46 46 43 39 36 36
13 12 11 8 8 12 10 13 15 12 10 8 7 5 4 5 8 10 11 11 12 12 14 15 16 19 21 23 25 28 29 30 32 35 37 40 43 45 44 41 38 37 36 35
19 15 13 12 11 11 12 13 13 12 10 7 6 5 6 8 9 10 10 11 12 13 14 16 19 21 23 25 27 29 30 31 34 37 40 43 44 41 39 38 37 36 36 35
21 16 15 14 13 13 13 15 13 11 9 8 7 6 8 9 9 9 11 12 13 15 17 19 21 23 25 27 28 29 31 34 37 40 43 43 41 38 37 37 37 36 35 34
20 17 17 13 11 13 16 15 13 12 10 8 7 7 7 8 10 11 11 13 15 17 19 21 23 26 26 27 28 30 33 37 40 42 41 39 38 37 37 36 35 34 33 29
19 19 17 11 14 13 19 17 15 13 9 7 6 6 8 10 11 12 13 15 16 19 21 23 25 25 26 28 30 33 37 39 41 39 38 38 37 37 36 35 33 30 27 25
21 17 16 16 15 16 19 18 14 9 7 5 6 8 9 11 12 13 14 16 19 21 23 25 25 26 27 29 32 36 39 40 38 36 37 37 36 35 34 33 30 27 25 23
21 19 16 18 20 19 17 13 10 7 4 5 7 9 11 11 12 13 16 18 21 23 24 24 25 26 29 32 35 38 39 36 36 37 36 34 34 32 31 29 27 25 23 20
20 17 18 20 20 18 14 11 7 4 4 7 9 10 10 11 13 16 18 21 23 24 24 25 26 28 31 35 37 37 35 35 35 35 34 33 31 29 28 26 25 22 17 12
19 19 22 21 18 14 11 8 5 5 7 9 10 10 11 13 15 18 21 23 23 24 24 25 27 30 34 36 35 33 34 34 33 32 32 30 28 27 27 25 20 15 11 7
21 22 20 18 16 13 10 6 5 7 9 10 10 11 13 15 18 21 22 23 23 23 25 27 30 33 35 34 32 32 33 33 33 30 28 27 27 26 24 20 14 9 6 6

GFSNGP_700_spd_030.txt.gz
Wind_Speed
43 45 44 45 33 29 36 52 29 33 32 40 33 25 19 27 15 11 9 20 21 19 23 26 26 24 24 25 27 28 28 27 27 27 28 28 29 31 33 35 38 41 42 43
44 45 39 42 44 43 41 34 39 40 42 29 20 24 21 7 6 9 10 18 19 19 19 20 20 20 22 25 26 26 26 26 27 27 28 29 30 32 34 36 40 41 42 42
23 29 31 10 16 24 32 28 29 36 20 23 18 4 3 6 12 13 13 13 16 16 15 15 15 18 21 23 24 24 25 26 27 27 28 30 31 33 34 37 39 40 41 41
19 22 4 19 25 7 19 23 22 24 20 20 7 6 13 13 17 16 16 17 16 15 14 15 17 19 21 21 22 22 24 25 26 27 28 28 30 32 35 37 38 39 40 40
7 15 15 20 23 19 12 4 11 8 2 11 3 11 17 20 20 18 17 17 15 13 14 16 18 19 19 19 20 21 22 23 24 24 25 27 30 32 35 36 37 38 39 41
11 5 4 18 17 14 14 16 12 14 14 12 17 22 16 18 20 19 19 19 16 16 16 17 18 17 17 17 17 18 19 19 20 22 24 27 30 32 34 35 36 37 39 42
11 5 7 14 11 11 8 5 3 8 8 9 12 15 16 14 14 16 17 17 17 15 13 12 13 13 14 14 15 14 15 17 20 22 25 28 30 32 33 33 36 38 40 42
4 5 4 11 5 5 6 6 2 6 11 10 9 5 10 12 12 13 12 10 10 10 11 12 12 12 11 11 11 13 15 18 21 24 26 28 30 30 32 35 37 40 41 42
5 2 4 7 5 5 6 8 7 4 8 14 11 10 13 13 11 10 10 9 10 10 10 10 10 9 9 10 12 14 17 20 22 24 26 27 28 30 33 36 39 41 43 44
6 3 3 1 4 6 6 8 9 8 10 14 12 13 13 12 11 12 12 11 9 9 9 9 8 8 9 11 14 16 19 21 22 24 25 26 28 31 34 37 39 42 44 46
7 4 3 4 3 4 5 6 7 6 9 12 12 11 10 10 11 12 10 10 10 9 8 7 7 8 10 12 15 17 19 21 22 23 24 27 30 32 35 38 41 44 46 49
5 7 4 3 6 2 1 3 3 6 5 11 13 8 10 11 12 11 10 9 7 6 6 6 7 9 11 14 16 18 19 20 21 23 25 28 30 32 36 38 40 43 47 50
10 8 5 9 10 5 2 2 2 4 7 6 11 10 11 8 9 8 6 4 4 4 5 6 8 11 13 15 16 16 17 18 21 23 26 30 33 35 35 34 39 44 48 49
12 10 9 11 10 5 4 4 5 6 8 10 8 10 8 6 4 3 3 3 4 5 6 8 10 11 12 13 13 15 17 19 22 26 29 31 34 36 39 43 46 46 45 45
10 11 8 8 10 10 5 4 4 8 8 9 10 8 5 4 4 4 5 6 6 6 7 8 9 9 10 11 13 15 18 22 25 28 30 33 35 38 42 44 47 47 44 42
9 12 11 8 5 5 9 11 10 10 10 9 7 6 6 5 5 6 6 5 4 5 6 7 7 9 10 12 15 18 21 24 27 29 32 34 37 40 43 45 45 43 43 44
8 13 10 8 9 8 10 12 12 10 9 9 9 5 6 6 6 5 3 3 4 5 5 6 8 10 12 15 18 21 24 26 28 30 33 36 39 43 45 44 42 44 43 41
13 11 10 8 4 9 11 13 13 12 10 9 6 2 6 6 4 2 2 3 4 5 7 8 10 12 15 17 20 23 25 27 29 32 35 38 42 43 42 42 43 43 40 37
12 11 10 10 11 12 12 12 14 14 12 7 5 5 7 5 3 2 3 4 5 7 8 10 12 14 17 20 22 24 26 28 31 35 38 41 41 41 41 42 42 40 38 36
18 16 15 12 14 15 14 14 14 13 11 7 6 8 6 3 2 2 4 6 7 8 10 12 14 17 19 21 24 25 28 31 34 38 41 41 40 40 41 41 40 37 35 31
21 20 18 15 16 18 17 14 15 12 8 10 10 7 4 2 2 4 5 7 8 10 11 14 17 19 21 23 25 28 31 34 37 40 40 40 39 41 40 39 37 34 31 29
19 20 17 17 17 18 18 17 15 13 9 10 8 5 3 1 3 5 7 8 9 11 13 16 19 21 22 24 27 30 33 36 39 40 39 40 41 40 38 35 33 31 29 25
16 17 17 18 19 17 10 16 15 14 13 10 7 5 2 3 5 7 8 9 10 13 16 18 20 22 24 27 30 33 36 38 39 39 39 40 39 37 35 32 30 29 25 19
18 20 21 21 22 17 13 17 15 16 13 9 6 3 2 5 7 7 8 10 13 15 17 19 21 24 27 29 32 36 38 38 38 38 39 37 36 34 31 29 27 24 19 13
20 22 21 19 13 16 16 17 17 14 11 8 5 2 4 6 7 7 9 12 14 16 19 21 24 26 29 32 35 38 38 37 37 37 36 34 33 29 27 26 23 17 11 8
20 20 20 18 16 17 19 17 14 12 10 7 3 3 5 6 6 8 10 13 16 18 20 23 26 29 32 35 37 37 37 36 36 34 33 32 29 26 24 22 18 13 9 7
23 21 21 22 23 21 20 17 14 12 8 4 3 4 5 6 7 9 12 15 17 20 23 26 29 31 33 36 36 35 35 35 34 32 30 28 26 24 21 17 13 9 7 4

GFSNGP_700_spd_033.txt.gz
Wind_Speed
39 42 45 49 51 47 43 48 33 40 31 38 27 22 23 18 20 22 9 16 23 25 31 34 37 34 31 26 24 25 25 27 26 25 25 25 26 26 27 30 32 34 36 39
45 37 31 38 32 34 38 45 41 40 42 21 24 20 21 17 15 6 10 18 21 24 29 32 31 28 26 23 24 25 24 25 24 24 25 26 26 27 29 31 33 34 37 40
26 32 41 12 28 26 17 26 31 34 8 11 12 13 8 3 10 12 17 22 26 27 28 27 24 21 21 21 22 22 23 22 22 24 24 25 27 28 30 31 33 36 38 39
24 28 4 25 27 24 12 6 10 15 9 10 2 6 7 10 19 19 22 26 27 26 25 22 20 20 20 21 21 20 20 20 21 23 24 25 27 28 29 31 35 36 37 37
7 15 22 12 30 25 18 19 11 3 10 14 14 12 10 16 20 24 21 24 23 22 20 18 18 19 19 19 19 18 18 20 22 23 23 24 24 27 29 32 34 35 36 37
13 6 4 15 23 15 8 19 16 17 15 15 16 17 19 22 24 26 25 22 20 19 18 17 17 17 17 16 15 16 18 19 19 19 20 22 24 27 29 31 32 33 35 38
17 7 11 14 18 10 12 8 7 10 12 14 18 20 20 20 20 21 20 20 19 16 14 15 16 15 15 15 15 14 14 15 16 17 20 22 25 27 28 30 32 33 36 39
4 5 7 15 9 12 11 9 4 6 11 19 17 17 16 11 13 16 12 15 16 15 15 15 14 13 12 11 11 12 12 13 15 18 20 22 24 27 28 30 32 35 38 39
5 6 8 10 9 11 12 13 8 8 16 13 11 10 13 10 12 13 12 11 12 13 11 12 12 11 9 9 9 10 12 14 17 18 20 23 24 26 28 31 34 37 39 41
7 5 3 2 4 7 9 12 10 8 14 14 12 11 18 14 11 11 11 10 9 9 9 8 8 9 8 8 9 11 13 15 17 19 21 21 23 26 30 33 36 38 40 42
6 5 5 4 1 5 7 10 12 8 10 10 11 11 11 11 11 10 9 9 9 9 9 8 7 7 7 9 10 11 13 15 17 18 20 22 25 28 31 35 37 40 42 46
5 6 2 4 3 1 3 3 4 7 5 8 12 8 10 10 11 10 9 9 9 9 8 7 7 8 8 8 10 12 13 15 16 18 21 24 26 30 33 35 38 41 44 48
12 9 6 5 8 6 2 1 3 6 7 8 7 9 11 9 11 12 11 10 9 8 7 7 6 6 6 8 10 11 13 15 17 20 23 25 28 30 30 32 37 42 45 46
13 12 9 8 10 6 4 5 3 7 5 12 12 15 14 11 10 10 9 8 7 7 5 3 3 5 7 8 10 12 14 16 19 21 24 27 30 33 36 39 41 41 41 42
8 12 9 8 12 9 9 7 8 9 8 12 13 11 11 7 6 6 6 6 5 3 2 3 5 6 7 8 10 12 15 18 20 24 27 29 32 35 39 42 43 43 42 41
8 13 14 11 6 6 9 10 10 8 11 10 8 8 6 5 4 5 5 4 2 1 3 4 5 6 7 9 11 14 17 20 23 25 28 31 35 38 40 41 41 40 41 43
8 16 7 9 8 9 9 11 12 10 10 10 8 4 6 5 5 6 4 2 1 2 3 3 5 7 9 11 14 17 20 22 25 27 31 34 37 40 40 40 40 41 41 40
13 15 12 11 8 9 12 15 15 13 11 8 4 4 8 8 7 5 3 2 1 1 3 4 7 9 11 14 17 19 21 24 27 30 33 37 39 40 39 40 40 40 38 36
14 11 12 14 13 12 12 14 15 15 12 7 6 4 8 8 6 3 2 1 1 3 4 6 8 11 14 16 18 21 24 27 30 34 36 38 38 38 39 39 39 38 36 32
13 13 13 13 13 14 15 16 15 15 13 9 4 7 8 6 4 3 1 1 2 4 6 8 10 13 16 18 21 23 27 30 33 35 37 37 38 38 39 39 37 35 32 28
19 17 16 15 13 17 18 15 17 16 12 11 9 9 7 5 3 2 1 2 4 5 7 10 13 15 18 20 23 26 29 32 35 36 37 38 38 38 38 36 35 31 28 24
18 19 17 16 14 18 20 18 17 15 9 10 11 9 6 5 3 1 2 4 5 6 9 12 15 17 20 23 26 29 31 34 36 38 38 38 38 37 35 34 30 28 25 20
16 18 19 17 17 19 21 20 17 17 12 13 11 8 7 4 2 2 3 4 6 9 11 14 17 19 22 25 28 31 34 36 37 37 37 38 37 35 33 29 27 25 21 14
15 18 19 20 22 23 19 13 18 18 16 14 11 9 6 3 2 3 4 5 8 11 13 15 18 21 24 27 30 33 36 37 37 37 37 37 35 33 29 27 24 21 15 9
16 19 21 22 22 24 20 14 16 16 16 13 11 8 5 2 3 3 4 7 10 12 15 17 20 24 27 30 33 36 37 36 37 37 36 34 32 29 25 23 20 14 9 6
19 21 20 21 21 19 18 17 16 16 14 13 10 7 3 3 3 4 6 8 11 13 16 20 23 26 29 33 35 36 36 36 38 37 34 32 29 23 20 18 14 10 7 4
20 23 22 24 22 20 19 20 19 16 15 13 9 5 4 4 4 5 7 9 12 15 19 22 25 28 31 34 34 35 36 38 38 35 32 28 22 19 17 14 10 7 4 4

GFSNGP_700_spd_036.txt.gz
Wind_Speed
29 34 39 39 42 45 43 50 39 60 35 41 29 26 24 23 21 20 16 19 19 28 33 32 34 38 39 39 35 29 26 23 22 24 24 25 25 25 25 26 28 31 33 35
35 25 20 36 32 22 26 23 31 41 46 24 19 13 16 18 16 15 15 14 21 31 35 31 31 36 37 34 29 25 22 24 22 22 23 24 24 24 25 27 30 32 34 36
15 23 36 9 23 26 21 16 16 15 8 9 14 15 16 11 15 19 14 18 26 32 35 33 30 33 31 28 24 22 26 22 22 23 25 23 23 24 26 28 31 33 34 36
18 20 4 12 25 25 18 15 5 4 6 8 6 5 6 6 10 12 17 22 24 27 30 30 30 28 25 24 22 22 22 23 23 22 21 22 23 24 26 29 30 32 34 35
6 9 21 11 28 25 15 18 11 11 12 12 11 9 12 14 17 20 24 28 31 33 32 30 27 25 22 21 23 21 21 19 19 20 21 22 23 24 26 27 30 32 33 34
10 4 4 11 20 18 12 14 15 12 14 17 14 11 19 18 23 25 31 30 30 31 29 26 25 22 20 19 19 18 18 18 19 20 20 20 21 23 25 27 29 31 32 33
22 9 13 10 21 13 6 13 13 12 14 21 16 16 20 20 20 23 23 25 25 23 21 20 18 19 18 17 17 17 17 17 17 17 17 18 20 22 25 27 28 29 32 35
7 7 6 13 13 13 14 12 2 11 12 17 19 17 19 22 20 19 19 19 19 17 17 17 16 16 17 16 15 14 14 14 14 13 15 18 20 23 24 26 28 30 33 35
7 6 12 11 8 11 14 12 5 12 11 12 14 15 13 14 15 16 16 17 18 16 15 16 16 15 12 11 11 11 10 11 12 13 16 18 21 23 24 26 29 32 34 36
12 6 9 6 6 8 12 11 8 6 7 7 4 6 9 11 11 14 15 14 15 16 14 13 14 14 14 11 10 9 8 10 12 15 17 19 21 23 25 28 31 34 36 38
10 8 7 4 2 4 9 11 11 9 10 8 7 14 12 11 12 12 13 14 14 13 12 10 9 9 8 7 6 7 9 11 14 16 17 19 21 24 27 30 33 35 38 41
8 7 5 4 4 4 7 6 5 8 5 9 11 12 13 13 13 13 12 12 12 12 10 8 7 5 4 5 6 9 11 13 14 15 17 20 23 26 29 32 35 39 41 43
11 11 9 5 6 6 5 2 1 3 6 6 9 11 12 11 12 11 11 11 11 9 8 7 5 4 5 7 9 10 11 12 14 16 19 22 25 27 30 32 35 39 41 42
9 11 12 9 8 7 6 6 5 6 4 4 9 13 12 10 11 12 10 9 8 7 6 5 5 5 6 7 8 9 11 13 16 19 22 24 27 29 32 34 36 36 39 42
16 14 13 13 12 11 10 10 5 8 7 10 12 12 12 9 8 8 8 8 8 7 6 5 4 4 5 7 8 10 13 15 18 21 23 26 29 32 35 38 40 41 41 39
12 11 15 15 13 13 13 13 14 13 10 11 10 11 9 9 8 8 8 9 8 5 4 3 3 4 5 7 9 12 14 18 20 23 25 28 31 35 37 39 39 39 40 40
9 11 12 13 13 8 9 10 11 8 13 11 9 7 7 7 7 8 7 6 5 3 2 3 4 5 7 9 11 13 16 19 22 25 27 31 34 37 39 39 39 39 38 38
11 15 12 9 8 9 10 12 13 13 12 10 7 3 6 8 8 7 6 4 3 3 3 3 4 6 8 10 13 16 19 21 24 27 30 34 37 38 39 38 38 38 36 34
12 12 9 12 12 12 12 14 16 15 13 9 5 3 9 10 8 7 5 4 4 2 3 4 5 7 10 13 15 18 20 23 27 30 34 36 37 38 38 37 36 35 34 31
14 12 11 13 13 13 14 17 17 16 14 9 4 6 9 9 8 6 5 4 2 3 4 5 7 10 12 15 17 20 23 27 30 33 36 37 36 36 36 36 35 34 30 27
14 14 14 13 14 15 17 16 16 15 14 10 7 8 10 9 7 6 4 3 2 3 4 6 9 12 14 17 20 23 26 30 33 35 36 36 35 36 36 34 32 29 26 23
20 18 16 15 16 17 20 21 20 20 18 10 10 13 10 8 7 5 3 3 3 4 6 8 11 13 16 19 22 25 29 33 35 36 36 37 37 36 33 32 28 25 22 17
17 19 18 18 19 18 21 23 22 21 17 8 12 12 10 9 7 5 4 4 4 5 7 10 12 15 18 21 24 28 32 35 36 37 37 38 37 35 32 28 24 22 17 10
15 18 19 19 20 21 24 25 25 22 18 15 15 13 11 9 7 5 5 4 5 7 9 11 14 17 20 24 28 32 34 35 37 38 39 38 36 33 28 22 20 17 11 6
14 18 20 22 22 23 26 26 21 18 19 17 15 13 11 8 7 5 5 5 6 8 10 13 16 19 23 27 31 33 35 36 38 39 39 38 33 26 20 18 16 11 7 5
15 19 20 21 23 26 27 23 19 17 16 17 16 14 11 8 7 7 6 6 7 9 12 15 19 22 26 30 33 34 35 36 38 39 37 31 23 19 17 16 12 7 4 3
15 19 21 24 26 29 26 21 19 18 19 18 16 14 11 9 8 7 7 7 9 10 13 17 21 25 28 31 33 34 35 37 37 34 28 24 21 18 15 12 8 4 3 2